Regional Weather Roundup
Issued by NWS Grand Forks, ND

Home | Current Version | Previous Version | Text Only | Print | Product List | Glossary Off
Versions: 1 2 3 4 5 6 7 8 9 10 11 12 13 14 15 16 17 18 19 20 21 22 23 24 25 26 27 28 29 30 31 32 33 34 35 36 37 38 39 40 41 42 43 44 45 46 47 48 49 50

000
ASUS43 KFGF 311031
RWRFGF
PRAIRIE TO PINES  WEATHER ROUNDUP
NATIONAL WEATHER SERVICE EASTERN NORTH DAKOTA/GRAND FORKS ND
400 AM CST SAT JAN 31 2015

 **SATELLITE DATA USED TO AUGMENT SKY COVER AT AUTOMATED STATIONS**
 *****  WEATHER ACROSS EASTERN NORTH DAKOTA  *****

CITY           SKY/WX    TMP DP  RH WIND       PRES   REMARKS
GRAND FORKS    PTCLDY     9   0  66 N21G28    30.32R WCI -11
GRAND FRKS AFB CLOUDY     9   1  72 NE17G25   30.32R WCI -10
GRAND FRKS NWS   N/A      7 N/A N/A N36         N/A  WCI -18
DEVILS LAKE    MOCLDY     9   3  78 N13G18    30.28R WCI  -7
FARGO          CLOUDY    18  12  77 N15       30.25R WCI   4
WAHPETON ARPT  CLOUDY    19  16  86 N20       30.23R WCI   4
$$

 ***** WEATHER ACROSS CENTRAL AND WESTERN NORTH DAKOTA  *****

CITY           SKY/WX    TMP DP  RH WIND       PRES   REMARKS
BISMARCK       CLOUDY    23  22  96 NE7       30.24R WCI  15
MINOT          CLOUDY    18  13  80 N13       30.25R WCI   5
JAMESTOWN      CLOUDY    21  16  81 NE13      30.22R WCI   9
MINOT AFB      MIX PCPN  14  14 100 NE13      30.27R WCI   0
GARRISON         N/A     20  16  84 NE7       30.23R WCI  11
WILLISTON      CLOUDY    24  20  84 E13       30.20S WCI  12
DICKINSON      FOG       23  21  92 NE14      30.11F VSB 1/4 WCI  11
HETTINGER      FOG       25  23  92 E13G18    30.10S VSB 3/4 WCI  14
$$

 *****  OTHER AIRPORT OBSERVATIONS IN OUR AREA  *****

CITY           SKY/WX    TMP DP  RH WIND       PRES   REMARKS
WALHALLA         N/A      7   3  85 N20       30.37R WCI -13
GRAFTON AIRPOR NOT AVBL
VALLEY CITY AR CLOUDY    18  16  93 NE13G20   30.25R WCI   4
CANDO          CLOUDY     5  -2  72 NE17G24   30.32R WCI -14
CAVALIER APRT  CLOUDY     7   3  85 N10       30.35R WCI  -8
GWINNER        CLOUDY    25  23  93 N14       30.23S WCI  13
SHEYENNE NWR     N/A     20  15  82 N9        29.95S WCI   9
ROLLA          CLOUDY     3   0  85 N21G26    30.30S WCI -18
 ***** THE ABOVE OBSERVATIONS ARE NON NWS ARE NOT QUALITY
       CONTROLLED AND MAY MIS-REPORT RAIN FOR SNOW...
$$

  *****  WEATHER ACROSS NORTHERN MINNESOTA  *****

CITY           SKY/WX    TMP DP  RH WIND       PRES   REMARKS
FLAG ISLAND    CLEAR      1  -2  85 NW18      30.25R WCI -19
WARROAD        PTCLDY     3  -4  72 NW12      30.27R WCI -13
ROSEAU         PTCLDY     5  -2  72 N14       30.29R WCI -12
HALLOCK        PTCLDY     5  -2  72 N18G26    30.33F WCI -15
THF RVR FALLS  PTCLDY     9   3  78 N20       30.26R WCI -11
BAUDETTE       PTCLDY     8   2  76 NW16      30.20R WCI -10
WASKISH        CLOUDY    14  10  85 NW8       30.19R WCI   3
CROOKSTON      PTCLDY    12   9  85 N21G26    30.29R WCI  -6
STEPHEN NDAWN    N/A      7   1  78 N16         N/A  WCI -11
GREENBUSH NDAW   N/A      3  -2  78 N18         N/A  WCI -17
$$
  *****  WEATHER ACROSS CENTRAL AND WEST MINNESOTA  *****

CITY           SKY/WX    TMP DP  RH WIND       PRES   REMARKS
FOSSTON        CLOUDY    12   9  85 N17       30.22R WCI  -5
BEMIDJI        CLOUDY    18  16  89 N12       30.15R WCI   6
PARK RAPIDS    CLOUDY    23  18  81 N9        30.13R WCI  13
ELBOW LAKE     CLOUDY    20  19  93 N10       30.17S WCI   9
WADENA         CLOUDY    21  19  93 N8        30.15R WCI  12
DETROIT LAKES  CLOUDY    19  19 100 N10       30.19R WCI   8
MOORHEAD       CLOUDY    18  18 100 N18       30.26R WCI   2
FERGUS FALLS   CLOUDY    19  18  93 N12       30.22R WCI   7
MORRIS MN      CLOUDY    23  21  93 N17       30.16S FOG     WCI   9
STAPLES        CLOUDY    21  19  93 NW6       30.15R WCI  14
$$
  *****  WEATHER ELSEWHERE ACROSS MINNESOTA  *****

CITY           SKY/WX    TMP DP  RH WIND       PRES   REMARKS
DULUTH         CLOUDY    21  14  74 W7        30.07R WCI  12
INTRNTL FALLS  CLOUDY    12   7  80 N15       30.16R WCI  -4
ELY            CLOUDY    16  12  86 NW9       30.07R WCI   4
CLOQUET        CLOUDY    19  14  79 CALM      30.10R
WHEATON        CLOUDY    19  18  93 NW14      30.22S WCI   6
BRAINERD       CLOUDY    25  20  81 N8        30.12R WCI  16
HIBBING        CLOUDY    20  13  74 NW14      30.09R WCI   7
ALEXANDRIA     CLOUDY    23  20  88 N12       30.15R WCI  12
SAINT CLOUD    CLOUDY    20  18  92 NW3       30.12S
MINNEAPOLIS    CLOUDY    22  19  89 CALM      30.13S
$$

  *****  WEATHER ACROSS SOUTH DAKOTA  *****

CITY           SKY/WX    TMP DP  RH WIND       PRES   REMARKS
SIOUX FALLS    PTCLDY    22  19  89 CALM      30.09F
BROOKINGS      NOT AVBL
WATERTOWN      CLOUDY    24  23  96 N16       30.12S FOG     WCI  11
HURON          MOCLDY    25  23  92 N14       30.14R FOG     WCI  13
SISSETON         N/A     23  21  92 N17       30.19S WCI   9
ABERDEEN       CLOUDY    26  23  88 N15       30.18F WCI  14
MITCHELL       PTCLDY    25  23  92 NW8       30.11S WCI  16
PIERRE         MOCLDY    25  23  92 NE6       30.11R WCI  18
MOBRIDGE       CLOUDY    26  24  92 N12       30.14R FOG     WCI  16
RAPID CITY     CLOUDY    29  22  75 N5        30.04F WCI  24
$$

  *****  SOME WEATHER IN NEARBY STATES *****

CITY           SKY/WX    TMP DP  RH WIND       PRES   REMARKS
GLASGOW MT     CLOUDY    25  22  88 E24       30.08S FOG     WCI   9
GREAT FALLS MT CLOUDY    33  21  61 N14       30.01R WCI  23
CHEYENNE WY    CLOUDY    32  23  69 N6        29.95F
SCOTTSBLUFF NE CLOUDY    33  26  75 NW3       29.99F
OMAHA NE       CLOUDY    33  27  78 SE9       30.19F
DES MOINES IA  CLOUDY    30  21  69 SW3       30.20F
DAVENPORT IA   MOCLDY    25  17  72 S9        30.24F WCI  15
CHICAGO IL     CLOUDY    26  18  71 SW6       30.26F WCI  19
EAU CLAIRE WI  CLOUDY    21  12  68 CALM      30.12F
LA CROSSE WI   CLOUDY    22  13  68 S3        30.16F
$$

  *****  SOME NATIONAL WEATHER *****

CITY           SKY/WX    TMP DP  RH WIND       PRES   REMARKS
LA GUARDIA NY  PTCLDY    16   3  56 NW18G35   30.07R WCI   0
RALEIGH NC     CLEAR     26   8  46 CALM      30.32S
ATLANTA GA     PTCLDY    31  19  61 CALM      30.31S
NEW ORLEANS LA PTCLDY    47  34  60 E7        30.29S
OKLAHOMA CITY  CLOUDY    42  29  59 SE7       30.22F
ALBUQUERQUE NM LGT SNOW  33  32  96 N6        29.96F FOG
SALT LAKE CITY CLOUDY    40  36  86 W5        29.96S
LOS ANGELES CA MOCLDY    58  55  90 S3        29.86S
BOISE ID       CLEAR     28  25  88 SE5       30.13R WCI  23
SEATTLE WA     FOG       39  37  92 N3        30.26R VSB 1/8
$$

*** WEATHER ACROSS MANITOBA...SASKATCHEWAN AND ONTARIO ***
                ***ONTARIO***

CITY           SKY/WX    TMP DP  RH WIND       PRES   REMARKS
GERALDTON      FLURRIES   7   3  85 W3        29.98F
THUNDER BAY    FLURRIES   9   7  92 W6        30.09R WCI  -1
SIOUX LOOKOUT  NOT AVBL
TORONTO        CLOUDY     7   0  72 NE3       30.31F
BIG TROUT LK   CLEAR    -24 -31  69 NW10      30.23R WCI -46
PICKLE LAKE    NOT AVBL
DRYDEN         MOCLDY     5   1  85 NW7       30.14R WCI  -7
KENORA         FLURRIES   3  -2  78 NW15      30.20R WCI -15
$$
                *** MANITOBA***

CITY           SKY/WX    TMP DP  RH WIND       PRES   REMARKS
BRANDON        CLOUDY     3  -4  72 NE14      30.38R WCI -15
DAUPHIN        CLOUDY    -6 -13  71 N10       30.50R WCI -23
ISLAND LAKE    CLEAR    -22 -31  63 NW9G17    30.40R WCI -42
PILOT MOUND      N/A      1  -4  78 N12         N/A  WCI -15
THE PAS        CLEAR    -22 -29  69 N9        30.59S WCI -42
THOMPSON       CRYSTALS -26 -35  62 NW10      30.49R WCI -48
WINNIPEG       PTCLDY     0  -8  71 N16G23    30.40R WCI -21
LYNN LAKE      CLEAR    -27 -35  68 NW9       30.51R WCI -49
CHURCHILL      BLWGSNOW -24 -31  69 NW25G36   30.30R VSB 1/2 WCI -56
GILLAM         CLEAR    -29 -36  68 W13       30.37R WCI -55
$$
                ***SASKATCHEWAN***

CITY           SKY/WX    TMP DP  RH WIND       PRES   REMARKS
ESTEVAN        LGT SNOW  12   9  85 NE17      30.28R DRFTSNOWWCI  -5
KINDERSLEY     CRYSTALS   7   3  85 NE24G30   30.32R BLWGSNOWWCI -15
LLOYDMINSTER   PTCLDY    -6 -11  77 NE10      30.47R WCI -23
PRINCE ALBERT  CLEAR    -13 -18  77 N7        30.56R WCI -29
REGINA         LGT SNOW   9   3  78 NE15      30.34R WCI  -8
YORKTON        MOCLDY     1  -6  71 N10       30.42R WCI -14
N. BATTLEFORD  CLEAR     -2  -6  84 NE10      30.50R WCI -19
LA RONGE       CLEAR    -26 -31  75 NW3       30.64R
SASKATOON      PTCLDY    -2  -8  78 NE14G21   30.49R WCI -21
SWIFT CURRENT  LGT SNOW   9   7  92 E24G33    30.19S BLWGSNOWWCI -12
$$
NOTE: THESE ARE AUTOMATED STATIONS WITH LIMITED QUALITY CONTROL
      "FAIR" INDICATES FEW OR NO CLOUDS BELOW 12,000 FEET WITH NO
      SIGNIFICANT WEATHER AND/OR OBSTRUCTIONS TO VISIBILITY.
      SKY/WX - SKY CONDITION AND SIGNIFICANT WEATHER.
      TMP - AIR TEMPERATURE.    DP   - DEWPOINT TEMPERATURE.
      RH  - RELATIVE HUMIDITY.  PRES - PRESSURE.
      HX  - HEAT INDEX.         WCI  - WIND CHILL INDEX.
$



USA.gov is the U.S. government's official web portal to all federal, state and local government web resources and services.